User: anonymous   Login
Location: Unspecified
(0.0000°N, 0.0000°E)
Time: 10:54:25
(UTC+00:00)
Language:

STARLINK-3257 - Orbit

View from above orbital plane
View from above orbital plane
View from above satellite
View from above satellite

Ground track
Ground track

The orbit is defined by the following mean orbital elements,

1 50203U          26145.32965737 +.00000000 +00000-0 -86992-5 0 00003
2 50203  53.2135 255.1573 0001268  90.1172 269.9965 15.08833484    06
Epoch (UTC): 25 May 2026 07:54:42
Eccentricity: 0.0001268
inclination: 53.2135°
perigee height: 539 km
apogee height: 541 km
right ascension of ascending node: 255.1573°
argument of perigee: 90.1172°
revolutions per day: 15.08833484
mean anomaly at epoch: 269.9965°

The dashed part of the orbit path shows where the satellite is in the earth's shadow,  

DLR